Погода в Аккудуке

Погода в Аккудуке : погода сейчас, прогноз погоды и архив. Всё, что Вы хотите узнать о погоде в Аккудуке!

Хотите узнать прогноз погоды в Аккудуке? Тогда Вам сюда: Погода в Аккудуке

Поиск расширенной информации на нашем сайте:

Другие новости

Новости СМИ2

Главная страница сайта

Новости сайта

02.10.2013

Напоминаем, что на нашем новом сайте вы можете получить высокодетализированные прогнозы погоды по пунктам России, СНГ и мира (включающие важные для авиации метеовеличины, такие как направление и скорость ветра, видимость, явления погоды, количество и форма облачности, нижняя и верхняя граница облачности), а также ознакомиться с разнообразными материалами по авиационной метеорологии и подборкой полезных ссылок на эту тему.

Сайт Метеоцентр.Азия посвящён разработке технологий оптимизации авиаметеорологического обслуживания, включая проектирование и перспективное создание нескольких автоматизированных авиаметеорологических систем:
- система выпуска высокодетальных прогностических карт явлений погоды для нижнего воздушного пространства по России и ближнему зарубежью;
- система верификации прогнозов TAF (выпускаемых синоптиками официальных АМСГ РФ и ближнего зарубежья) и AUTOTAF (выпускаемых сайтом Метеоцентр.Азия) - выявление ошибок, онлайн-сопоставление с фактической погодой METAR, автоматическое внесение коррективов в прогнозы при резком отклонении фактической погоды от прогноза, подсчёт оправдываемости прогнозов по элементам и в целом;
- система обработки, анализа и отображения авиаметеорологической информации для применения провайдерами метеорологической информации.

Рекомендуем: Кондиционеры Panasonic inverter

Погода в Аккудуке - сегодня

Время (UTC), дата Ветер
(°,м/с) 
Видим.   Явления Облачность Т
(°С)
Тd
(°С)
f(%) Тe
(°С)
Pmin
(гПа)
dP
(гПа)
Po
(мм)
O2
(г/м3)
Тmin Tmax R s Состояние
почвы
09 23.04.17 130 (ЮВ) 20000 м    8/0 верхняя 
[Cs]
+17.2 +1.2 34 +17  1020.9  -2.5  759  287           
12 23.04.17 140 (ЮВ) 20000 м    4/0 верхняя 
[Ci sp]
+19.7 +1.7 30 +20  1016.6  -4.2  755  284           
15 23.04.17 120 (ЮВ) 20000 м    3/0 верхняя 
[Ci fib]
+19.8 +1.7 30 +20  1013.4  -3.2  753  283    +20.7       
18 23.04.17 110 (В) 20000 м    3/0 верхняя 
[Ci sp]
+17 +0.2 32 +17  1011.4  -2.1  752  285    +20.7       
21 23.04.17 120 (ЮВ) 20000 м    ясно 
+15.7 +3.8 45 +15  1010.2  -1.4  750  285           
00 24.04.17 130 (ЮВ) 20000 м    ясно 
+14.5 +7 61 +14  1008.8  -1.6  749  286           
03 24.04.17 140 (ЮВ) 20000 м    8/0 средняя 
[Ac cast]
+16 +7.2 56 +16  1005.3  -3  747  283           
06 24.04.17 180 (Ю) 20000 м    9/3 600 м кучево-дожд., средняя 
[Cb cap|As op]
+20.2 +8.5 47 +20  1004.8  -0.4  747  279  +13.7         
09 24.04.17 300 (СЗ) 20000 м    10/4 600 м кучево-дожд., средняя 
[Cb cap|As op]
+21.7 +9.3 45 +22  1006.1  1.4  748  278           
12 24.04.17 320 (СЗ) 13-15{16}  20000 м  пыльный позёмок  6/0 средняя 
[Ac cast]
+18.9 +8.6 51 +18  1007.9  1.7  749  281           
15 24.04.17 320 (СЗ) 10{15}  20000 м    5/0 верхняя 
[Ci sp]
+18.1 -0.7 28 +18  1010  751  284    +22.9       
18 24.04.17 320 (СЗ) 20000 м    9/9 600 м 
[Sc]
+14.4 +2.6 45 +13  1013.6  3.4  753  288    +22.9       
21 24.04.17 320 (СЗ) 20000 м    9/6 600 м средняя 
[Sc|Ac cast]
+12.2 +3.8 56 +11  1015.6  1.9  755  290           
00 25.04.17 330 (СЗ) 20000 м    9/6 600 м средняя 
[Sc|Ac cast]
+9.6 +4.1 69 +9  1016.7  755  293           
03 25.04.17 340 (С) 20000 м    3/0 средняя 
[Ac cuf]
+10.7 +6.5 75 +10  1018.8  2.2  757  292           
06 25.04.17 360 (С) 20000 м    6/0 средняя 
[Ac cast]
+15.2 +6 54 +15  1020.4  1.8  758  288  +8.1         
09 25.04.17 360 (С) 20000 м    10/10 600 м 
[Sc]
+18.4 +3.2 36 +19  1020.1  -0.2  758  286           
12 25.04.17 350 (С) 20000 м    8/0 средняя 
[Ac cast]
+19.6 +2 31 +20  1019.2  -0.8  758  284           
15 25.04.17 330 (СЗ) 20000 м    9/4 1000 м средняя 
[Sc|Ac cast]
+17.7 -0 30 +17  1021.6  2.2  759  287    +20.1       
18 25.04.17 330 (СЗ) 20000 м    8/8 1000 м 
[Sc]
+12.6 +3.1 52 +11  1025.2  3.4  762  293    +20.1       
21 25.04.17 330 (СЗ) 20000 м    9/9 1000 м 
[Sc]
+11.5 +4.5 62 +10  1026.7  1.4  763  294           
00 26.04.17 330 (СЗ) 20000 м    9/9 600 м 
[Sc]
+10 +5.6 74 +9  1028.3  1.5  764  296           
03 26.04.17 320 (СЗ) 20000 м    ясно 
+9.9 +5 72 +8  1030.4  2.2  766  297           
06 26.04.17 340 (С) 20000 м    5/5 600 м 
[Cu med, cong]
+14.4 +2.3 44 +14  1031.9  1.6  767  293  +8.4         
09 26.04.17 320 (СЗ) 20000 м    6/6 600 м 
[Cu med, cong]
+16.9 -1.6 28 +16  1031.7  -0.1  767  291           
Время (UTC), дата Ветер
(°,м/с) 
Видим.   Явления Облачность Т
(°С)
Тd
(°С)
f(%) Тe
(°С)
Pmin
(гПа)
dP
(гПа)
Po
(мм)
O2
(г/м3)
Тmin Tmax R s Состояние
почвы

Для получения пояснительной информации подведите курсор к названию столбца.

ПОГОДА в Аккудуке - архив

Всё, что Вы хотите узнать о погоде в Аккудуке - удобно и подробно!

Выберите нужную дату (начиная с 1 января 2015* года) и нажмите кнопку "Найти".
Будут отображены архивные сводки погоды по пункту Аккудук, начиная с указанной даты.


Отображать данные в формате CSV (для использования в таблицах Excel)


Внимание! Наш архив погоды предназначен исключительно для личного некоммерческого использования в познавательных целях. Если Вам необходимы официальные справки о состоянии погоды (для производственных, юридических, коммерческих и т.п. целей), обращайтесь в органы Росгидромета.

*Примечание: данная дата относится к архиву по метеостанциям СССР (Россия, СНГ, Балтия).
Архив по метеостанциям Зарубежной Европы и Азии (кроме Китая) хранится 10 дней, по другим регионам земного шара (Китай, Африка, Америка, Австралия, Океания) - 1 день.

Аккудук - район местоположения метеостанции


Название, широта, долгота, высота метеостанции:
Аккудук 42.1°ш. 54.1°д. 78 м над ур. моря [Казахстан]

Дополнительная информация

В oтличие oт бoльшинства пoгoдных сайтoв мы публикуем пoдрoбную метеoинфoрмацию в детальнoм прoфессиoнальнoм фoрмате.

Характеристики температуры и влажнoсти вoздуха измеряются на высoте 2 м в тени вдали oт зданий и деревьев.
Скoрoсть ветра измеряется на высoте 10 м (на урoвне рoста челoвека скoрoсть ветра ниже в 1.5-2 раза). Если метеoстанция нахoдится в гoрoде или в лесу, тo скoрoсть ветра занижена на 2-4 м/с пo сравнению с oткрытым местoм. Скoрoсть ветра над акватoриями крупных рек и oзёр, а также на вершинах хoлмoв на 2-5 м/с выше, чем в oбычных услoвиях.
Атмoсфернoе давление в разных тoчках местнoсти мoжет значительнo oтличаться oт давления на метеoстанции, в зависимoсти oт услoвий рельефа (при пoдъёме на 10 м давление пoнижается примернo на 1 мм рт.ст.).